Location: Fluertsh�userhof
(48.7537°N, 10.3850°E)
Time: 05:18:07
(UTC+00:00)

SPOT 1/Viking Rocket - Pass Details

Date: 18 September 2020
Orbit: 777 x 794 km, 98.5° (Epoch: 22 October)

Event Time Altitude Azimuth Distance (km) Brightness Sun altitude
Exits shadow 19:33:45 32° 70° (ENE) 1,319 4.4 -21.2°
Maximum altitude 19:34:01 33° 64° (ENE) 1,315 4.4 -21.3°
Drops below altitude 10° 19:38:35 10° 2° (N) 2,352 6.3 -21.9°
Sets 19:41:06 0° 353° (N) 3,282 7.3 -22.3°
